Regional Weather Roundup
Issued by NWS

Home | Current Version | Previous Version | Graphics & Text | Print | Product List | Glossary On
Versions: 1 2 3 4 5 6 7 8 9 10 11 12 13 14 15 16 17 18 19 20 21 22 23 24 25 26 27 28 29 30 31 32 33 34 35 36 37 38 39 40 41 42 43 44 45 46 47 48 49 50
000
ASUS43 KLOT 020410
RWRIL

ILLINOIS REGIONAL WEATHER ROUNDUP
NATIONAL WEATHER SERVICE CHICAGO/ROMEOVILLE IL
1100 PM CDT FRI AUG 01 2014

NOTE: "FAIR" INDICATES FEW OR NO CLOUDS BELOW 12,000 FEET WITH NO
SIGNIFICANT WEATHER AND/OR OBSTRUCTIONS TO VISIBILITY.

* THESE STATIONS ARE NOT UNDER NWS QUALITY CONTROL. THEY ALSO MAY NOT
  REPORT WEATHER SUCH AS PRECIPITATION OR FOG.

ILZ001-002-007-009-015-016-024-020500-
NORTHWEST ILLINOIS

CITY           SKY/WX    TMP DP  RH WIND       PRES   REMARKS
MOLINE         CLEAR     67  62  84 CALM      30.11R
STERLING*      CLOUDY    63  57  82 SE5       30.15F
SAVANNA*       PTCLDY    69  58  68 SE14      30.13R
$$

ILZ003-004-008-010-011-017-018-020500-
NORTH CENTRAL ILLINOIS

CITY           SKY/WX    TMP DP  RH WIND       PRES   REMARKS
ROCKFORD       CLOUDY    63  57  81 SW7       30.14F
FREEPORT*      CLOUDY    63  58  86 SE7       30.15F
ROCHELLE*      CLOUDY    62  58  87 CALM      30.12F
DE KALB*       LGT RAIN  60  57  87 E12       30.12F
PERU*          MOCLDY    66  59  79 NE8       30.15R
$$

ILZ005-006-012>014-019>023-020500-
NORTHEAST ILLINOIS

CITY           SKY/WX    TMP DP  RH WIND       PRES   REMARKS
CHICAGO-OHARE  CLOUDY    68  54  60 NW5       30.11F
CHICAGO-MIDWAY MOCLDY    72  57  59 NW9       30.11F
AURORA         CLOUDY    64  56  75 W7        30.14F
LANSING*       MOCLDY    64  59  84 CALM      30.13S
JOLIET*        MOCLDY    67  58  72 N9        30.14S
WAUKEGAN       CLOUDY    64  56  75 VRB3      30.08F
DUPAGE AIRPORT CLOUDY    66  56  70 W5        30.11F
KANKAKEE*      MOCLDY    62  61  97 CALM      30.14R FOG
WHEELING       CLOUDY    68  56  65 CALM      30.11F
MORRIS*        MOCLDY    65  60  83 N3        30.13F
ROMEOVILLE*    CLOUDY    67  55  64 N7        30.13F
NORTHERLY ISL    N/A     71  57  61 CALM        N/A
$$

LMZ740>746-020500-
SOUTHERN LAKE MICHIGAN

STATION/POSITION SKY/WX   TEMP    WIND        PRES    VSBY  WAVE
                          AIR SEA DIR/SP/G                  HT/PER
                          (F)     (DEG/KT/KT) (MB)    (MI)  (FT/S)
SOUTHERN BUOY              66 65  240/  4/  6 1019.1S         0
WAUKEGAN HARBOR            68     240/ 10/ 14   N/A
HARRISON CRIB              70     300/ 10/ 11   N/A
BURNHAM HARBOR             71     130/  1/ 10   N/A
CALUMET HARBOR                                1018.8
BURNS HARBOR               69     200/  4/  6   N/A
MICHIGAN CITY              68     190/  4/  5   N/A
MICHIGAN CITY 6N           69 69  270/  6/  8   N/A           0
ST. JOSEPH                 69 70  210/  4/  4   N/A           0
$$

ILZ025>027-034>036-040-047-049-050-058-095>099-020500-
WEST-CENTRAL ILLINOIS

CITY           SKY/WX    TMP DP  RH WIND       PRES   REMARKS
QUINCY         PTCLDY    65  63  93 SW5       30.08F
GALESBURG*     PTCLDY    61  59  94 E6        30.12R
MACOMB*        CLOUDY    62  61  96 NW3       30.11S
JACKSONVILLE*  PTCLDY    65  64  96 NE8       30.12R
PITTSFIELD*    PTCLDY    63  60  91 CALM      30.10F FOG
$$

ILZ028>032-037-038-041>044-048-051>054-059>061-020500-
CENTRAL ILLINOIS

CITY           SKY/WX    TMP DP  RH WIND       PRES   REMARKS
PONTIAC        MOCLDY    63  63 100 CALM      30.14R FOG
DECATUR        PTCLDY    59  57  93 NE5       30.11R FOG
PEORIA         CLOUDY    65  61  87 E7        30.11R FOG
LACON*         MOCLDY    64  61  90 CALM      30.13R
LINCOLN*       CLOUDY    65  62  89 CALM      30.09R
SPRINGFIELD    PTCLDY    65  62  90 N9        30.13R
TAYLORVILLE    CLEAR     57  55  94 CALM      30.11R FOG
$$

ILZ033-039-045-046-055>057-062-063-020500-
EAST-CENTRAL ILLINOIS

CITY           SKY/WX    TMP DP  RH WIND       PRES   REMARKS
CHAMPAIGN      MOCLDY    65  62  90 NW3       30.13R
DANVILLE*      RAIN      64  63  94 N5        30.09S
MATTOON          N/A    N/A N/A N/A E3        30.10S
PARIS*         CLOUDY    64  63  96 CALM      30.12S
$$

ILZ079-100>102-020500-
SOUTHWEST ILLINOIS

CITY           SKY/WX    TMP DP  RH WIND       PRES   REMARKS
ALTON          PTCLDY    64  64 100 CALM      30.09S
BELLEVILLE     MOCLDY    66  66  99 CALM      30.08S
CAHOKIA*       PTCLDY    67  64  90 SW3       30.09S
SPARTA*        MOCLDY    64  63  94 CALM      30.09S
$$

ILZ064>066-069>071-074>076-080>082-084>086-088>090-092>094-020500-
SOUTH-CENTRAL ILLINOIS

CITY           SKY/WX    TMP DP  RH WIND       PRES   REMARKS
CARBONDALE     CLOUDY    68  61  78 N5        30.09R
CAIRO*         PTCLDY    71  66  83 N3        30.06R
MARION         CLOUDY    68  64  88 CALM      30.08F
MT. VERNON     CLOUDY    68  59  73 W10G17    30.12R THUNDER
CENTRALIA*     CLOUDY    65  62  90 CALM      30.09F
SALEM*         CLOUDY    67  65  91 S3        30.10R THUNDER
METROPOLIS*    PTCLDY    74  62  67 N5        30.06R
$$

ILZ067-068-072-073-078-083-087-091-020500-
SOUTHEAST ILLINOIS

CITY           SKY/WX    TMP DP  RH WIND       PRES   REMARKS
LAWRENCEVILLE  CLOUDY    68  62  81 N3        30.09S
FAIRFIELD*     CLOUDY    68  64  88 CALM      30.08R
HARRISBURG*    CLOUDY    68  65  91 NW3       30.09S
ROBINSON*      CLOUDY    67  66  96 CALM      30.11S
CARMI*         CLOUDY    70  64  83 CALM      30.07F
$$

ABBREVIATIONS USED IN REMARKS
   TC - TEMPERATURE IN CELSIUS
  WCI - WIND CHILL INDEX
   HX - HEAT INDEX
  VSB - VISIBILITY
$$




USA.gov is the U.S. government's official web portal to all federal, state and local government web resources and services.